カタログに戻る

SL-16 DEB

運用中LEO
NORAD 22342·DEBRIS·🇷🇺 Russia

打ち上げ Dec 25, 1992 から Baikonur Cosmodrome

Loading…

次のパス (今後24時間)

TLE

最新Source: Space-Track

元期: Sep 14, 2026, 07:10 UTC

1 22342U 92093AF  26257.29884360  .00000150  00000-0  13917-3 0  9998
2 22342  70.6988 199.8098 0119416 320.8667 191.5840 13.94869546710473

AllMySatでSL-16 DEBをリアルタイム追跡

Download on the App Store